985  
NZUS01 KOTX 222110  
RWROTX  
 
EASTERN WASHINGTON/NORTHERN IDAHO ROUNDUP  
NATIONAL WEATHER SERVICE, SPOKANE WA  
200 PM PDT MON JUL 22 2019  
 
NOTE: "FAIR" INDICATED FEW OR NO CLOUDS BELOW 12,000 FEET WITH NO  
SIGNIFICANT WEATHER AND/OR S TO VISIBILITY
.  
   
..NORTHEAST WASHINGTON AND NORTHERN IDAHO PANHANDLE
 
 
 
CITY SKY/WX TMP DP RH WIND PRES REMARKS
 
SPOKANE INTL PTSUNNY 83 52 34 NE8 29.99S  
SPOKANE DOWNTO PTSUNNY 85 54 34 VRB3 29.96F  
COEUR D ALENE PTSUNNY 82 54 37 NE16 30.00F  
DEER PARK PTSUNNY 86 51 29 NE14 29.99F  
SANDPOINT CLOUDY 75 50 41 E12G17 30.04F  
BONNERS FERRY FAIR 68 55 64 CALM 30.09F  
   
..SOUTHEAST WASHINGTON AND SOUTHERN IDAHO PANHANDLE
 
 
 
CITY SKY/WX TMP DP RH WIND PRES REMARKS
 
WALLA WALLA SUNNY 90 44 20 SW9 29.92F  
PULLMAN/MOSCOW MOSUNNY 90 46 21 VRB6 29.99S  
LEWISTON PTSUNNY 92 47 21 NE5 29.91S  
LOWELL N/A 77 56 48 VRB5 29.94F  
GRANGEVILLE FAIR 79 50 36 W12 30.03R  
   
..COLUMBIA BASIN
 
 
 
CITY SKY/WX TMP DP RH WIND PRES REMARKS
 
EPHRATA PTSUNNY 93 40 15 VRB6 29.90F  
MOSES LAKE MOSUNNY 94 45 18 MISG 29.91F HX 90  
PASCO SUNNY 91 51 25 VRB5 29.89F  
RICHLAND CLEAR 91 49 23 E8 29.88S  
HERMISTON SUNNY 94 48 20 NW7 29.88F HX 90  
PENDLETON SUNNY 93 43 17 W9 29.93S  
   
..EAST SLOPES CASCADES
 
 
 
CITY SKY/WX TMP DP RH WIND PRES REMARKS
 
THE DALLES SUNNY 90 53 28 NW22G30 29.91S  
YAKIMA MOSUNNY 96 43 16 CALM 29.89F HX 92  
ELLENSBURG MOSUNNY 96 41 15 VRB5 29.94F HX 92  
STAMPEDE PASS SUNNY 72 51 47 VRB5 30.13S  
WENATCHEE MOSUNNY 90 38 16 S7G16 29.90F  
WINTHROP FAIR 93 40 15 S9 29.93F  
OMAK MOSUNNY 93 41 16 VRB3 29.91F  
SUNNYSIDE CLEAR 91 51 25 CALM 29.88F  
   
..SOUTHERN BRITISH COLUMBIA
 
 
 
CITY SKY/WX TMP DP RH WIND PRES REMARKS
 
PENTICTON PTSUNNY 84 54 34 N9 29.92F  
CASTLEGAR PTSUNNY 84 54 34 NW7 29.99F  
CRANBROOK PTSUNNY 75 54 46 SE3 30.15F  
OSOYOOS N/A 88 48 25 N5 N/A  
   
..WESTERN MONTANA
 
 
 
CITY SKY/WX TMP DP RH WIND PRES REMARKS
 
KALISPELL CLOUDY 79 51 37 SW3 30.13S  
LIBBY N/A 73 48 40 CALM 30.12F  
MISSOULA CLOUDY 77 51 40 NW14 30.12R  
   
..NEIGHBORING CITIES
 
 
 
CITY SKY/WX TMP DP RH WIND PRES REMARKS
 
SEATTLE MOSUNNY 78 51 38 SW7 30.06S  
PORTLAND SUNNY 80 52 37 VRB5 30.04F  
BOISE MOSUNNY 96 45 17 W8 29.98S HX 92  
GREAT FALLS SUNNY 87 48 25 NE5 30.15S  
CALGARY PTSUNNY 77 54 44 S6 30.14R  
 
CLICK HERE TO GO TO PREVIOUS BULLETINS.

The Nexlab WA Page
The Nexlab ID Page Main Text Page